Weather History for Worcester, MA

Change the Weather History Date:

Sunday, November 4, 2012

  Actual Average Record
Temperature  
Mean Temperature 42 °F 44 °F  
Max Temperature 49 °F 52 °F 74 °F (1987)
Min Temperature 35 °F 36 °F 18 °F (1932)
Degree Days  
Heating Degree Days 23 21  
Month to date heating degree days 85 82  
Since 1 July heating degree days 584 743  
Cooling Degree Days 0 0  
Month to date cooling degree days 0 0  
Year to date cooling degree days 674 471  
Moisture  
Dew Point 29 °F    
Average Humidity 63    
Maximum Humidity 75    
Minimum Humidity 50    
Precipitation  
Precipitation 0.00 in 0.14 in 4.92 in (1927)
Month to date precipitation T 0.58  
Year to date precipitation 37.58 40.55  
Snow  
Snow 0.00 in 0.00 in 1.00 in (1945)
Month to date snowfall 0.0 0.1  
Since 1 July snowfall 0.0 0.3  
Since 1 September snowfall 0.0 0.3  
Snow Depth 0.00 in    
Sea Level Pressure  
Sea Level Pressure 29.89 in    
Wind  
Wind Speed 12 mph (NW)    
Max Wind Speed 21 mph    
Max Gust Speed 29 mph    
Visibility 10 miles    
Events      
T = Trace of Precipitation, MM = Missing Value Source: NWS Daily Summary

Daily Weather History Graph

Daily Weather History Graph

Search for Another Location

Airport:

Trip Planner

Search our weather history database for the weather conditions in past years. The results will help you decide how hot, cold, wet, or windy it might be!

Date:

Astronomy

Nov. 04, 2012 Rise Set
Actual Time 6:24 AM EST 4:36 PM EST
Civil Twilight 5:55 AM EST 5:06 PM EST
Nautical Twilight 5:22 AM EST 5:39 PM EST
Astronomical Twilight 4:49 AM EST 6:12 PM EST
Moon 9:10 PM EST (11/4) 11:07 AM EST (11/4)
Length of Visible Light 11h 10m
Length of Day
10h 11m
Waning Gibbous, 72% of the Moon is Illuminated
Nov 4
Waning Gibbous
Nov 6
Last Quarter
Nov 13
New
Nov 20
First Quarter
Nov 28
Full

Hourly Weather History & Observations

Time (EST) Temp. Windchill Dew Point Humidity Pressure Visibility Wind Dir Wind Speed Gust Speed Precip Events Conditions
12:54 AM 37.0 °F 29.8 °F 28.0 °F 70% 29.83 in 10.0 mi NW 10.4 mph - N/A   Clear
1:54 AM 37.0 °F 28.9 °F 28.0 °F 70% 29.82 in 10.0 mi WNW 12.7 mph - N/A   Clear
1:54 AM 36.0 °F 25.3 °F 28.0 °F 73% 29.82 in 10.0 mi WNW 19.6 mph - N/A   Clear
2:54 AM 36.0 °F 26.0 °F 28.9 °F 76% 29.82 in 10.0 mi WNW 17.3 mph 25.3 mph N/A   Clear
3:54 AM 36.0 °F 25.3 °F 28.9 °F 76% 29.83 in 10.0 mi WNW 19.6 mph - N/A   Clear
4:54 AM 36.0 °F 26.7 °F 28.9 °F 76% 29.84 in 10.0 mi WNW 15.0 mph 24.2 mph N/A   Clear
5:54 AM 36.0 °F 25.6 °F 28.9 °F 76% 29.85 in 10.0 mi WNW 18.4 mph 24.2 mph N/A   Clear
6:54 AM 36.0 °F 26.3 °F 28.9 °F 76% 29.87 in 10.0 mi NW 16.1 mph 25.3 mph N/A   Clear
7:54 AM 39.0 °F 30.6 °F 30.0 °F 70% 29.89 in 10.0 mi NW 15.0 mph 21.9 mph N/A   Clear
8:54 AM 41.0 °F 34.3 °F 30.0 °F 65% 29.89 in 10.0 mi NW 11.5 mph 23.0 mph N/A   Clear
9:54 AM 44.1 °F 37.7 °F 30.9 °F 60% 29.90 in 10.0 mi NW 12.7 mph - N/A   Clear
10:54 AM 46.0 °F 40.2 °F 30.9 °F 56% 29.90 in 10.0 mi NW 12.7 mph - N/A   Clear
11:54 AM 48.0 °F - 32.0 °F 54% 29.88 in 10.0 mi NW 12.7 mph 16.1 mph N/A   Mostly Cloudy
12:54 PM 48.0 °F - 30.9 °F 52% 29.87 in 10.0 mi NNW 10.4 mph - N/A   Partly Cloudy
1:54 PM 48.0 °F - 30.9 °F 52% 29.88 in 10.0 mi NW 10.4 mph - N/A   Clear
2:54 PM 46.9 °F - 30.9 °F 54% 29.88 in 10.0 mi NW 11.5 mph - N/A   Mostly Cloudy
3:54 PM 43.0 °F 36.8 °F 30.0 °F 60% 29.90 in 10.0 mi NW 11.5 mph - N/A   Mostly Cloudy
4:54 PM 39.9 °F 33.9 °F 28.9 °F 65% 29.92 in 10.0 mi North 9.2 mph - N/A   Clear
5:35 PM 39.2 °F 33.6 °F 28.4 °F 65% 29.90 in 10.0 mi North 8.1 mph - N/A   Mostly Cloudy
5:54 PM 39.0 °F 33.4 °F 28.0 °F 65% 29.94 in 10.0 mi NW 8.1 mph - N/A   Overcast
6:54 PM 39.9 °F 35.1 °F 28.0 °F 63% 29.93 in 10.0 mi NNW 6.9 mph - N/A   Overcast
7:54 PM 39.9 °F 32.9 °F 28.0 °F 63% 29.94 in 10.0 mi NNW 11.5 mph - N/A   Overcast
8:54 PM 39.0 °F 35.7 °F 27.0 °F 62% 29.95 in 10.0 mi NW 4.6 mph - N/A   Overcast
9:54 PM 39.0 °F 33.4 °F 27.0 °F 62% 29.94 in 10.0 mi NNW 8.1 mph - N/A   Overcast
10:50 PM 39.2 °F 33.0 °F 26.6 °F 61% 29.91 in 10.0 mi NNW 9.2 mph - N/A   Overcast
10:54 PM 39.0 °F 33.4 °F 27.0 °F 62% 29.93 in 10.0 mi NNW 8.1 mph - N/A   Overcast